www.pogodaiklimat.ru
ПОГОДА в Кампинасе
Время
(UTC), дата
13 13.04
14 13.04
15 13.04
16 13.04
17 13.04
18 13.04
19 13.04
20 13.04
21 13.04
22 13.04
23 13.04
00 14.04
01 14.04
02 14.04
03 14.04
04 14.04
05 14.04
06 14.04
07 14.04
08 14.04
09 14.04
10 14.04
11 14.04
12 14.04
13 14.04
14 14.04
15 14.04
16 14.04
17 14.04
18 14.04
19 14.04
20 14.04
21 14.04
22 14.04
23 14.04
00 15.04
01 15.04
02 15.04
03 15.04
04 15.04
05 15.04
06 15.04
07 15.04
08 15.04
09 15.04
10 15.04
11 15.04
12 15.04
13 15.04
14 15.04
15 15.04
16 15.04
17 15.04
18 15.04
19 15.04
20 15.04
21 15.04
22 15.04
23 15.04
00 16.04
01 16.04
02 16.04
03 16.04
04 16.04
05 16.04
06 16.04
07 16.04
08 16.04
09 16.04
10 16.04
11 16.04
12 16.04
13 16.04
14 16.04
15 16.04
16 16.04
17 16.04
18 16.04
19 16.04
20 16.04
21 16.04
22 16.04
23 16.04
00 17.04
01 17.04
02 17.04
03 17.04
04 17.04
05 17.04
06 17.04
07 17.04
08 17.04
09 17.04
10 17.04
11 17.04
12 17.04
13 17.04
14 17.04
15 17.04
16 17.04
17 17.04
18 17.04
19 17.04
20 17.04
21 17.04
22 17.04
23 17.04
00 18.04
01 18.04
02 18.04
03 18.04
04 18.04
05 18.04
06 18.04
07 18.04
08 18.04
09 18.04
10 18.04
11 18.04
12 18.04
13 18.04
14 18.04
15 18.04
16 18.04
17 18.04
18 18.04
19 18.04
20 18.04
21 18.04
22 18.04
23 18.04
00 19.04
01 19.04
02 19.04
03 19.04
04 19.04
05 19.04
06 19.04
07 19.04
08 19.04
09 19.04
10 19.04
11 19.04
12 19.04
13 19.04
14 19.04
15 19.04
16 19.04
17 19.04
18 19.04
19 19.04
20 19.04
21 19.04
22 19.04
23 19.04
00 20.04
01 20.04
02 20.04
03 20.04
04 20.04
05 20.04
06 20.04
07 20.04
08 20.04
09 20.04
10 20.04
11 20.04
12 20.04
13 20.04
Ветер
(напр.,м/с)
Видим. Явления Облачность Т
(С)
Тd
(С)
f
(%)
Тe
(С)
Тes
(С)
Комфортность P
(гПа)
Po
(гПа)
Тmin
(С)
Tmax
(С)
R
(мм)
R24
(мм)
S
(см)
ЮВ 6 10 км 8/5 600 м
[Ac]
+22.0 +17.0 73 +26 +28 душно 1022.0 946.9
ЮВ 5 10 км 8/8 750 м
[Ac]
+24.0 +17.0 65 +28 +29 душно 1021.0 946.4
ЮВ 6 9000 м осадки на расстоянии 9/6 600 м
[Cu med, cong Ac trans]
+23.7 +16.1 61 +27 +28 жарко 1021.0 943.7
ЮВ 5 10 км 8/8 900 м
[Ac]
+24.0 +16.0 61 +27 +29 жарко 1020.0 945.5
ЮВ 8 10 км 8/5 750 м
[Ac]
+23.0 +17.0 69 +28 +29 душно 1020.0 945.3
ЮВ 7 20 км 9/4 1000 м
[Cu med, cong Ac trans]
+22.5 +15.9 65 +27 +28 душно 1019.0 942.3
ЮВ 7 10 км 8/5 900 м
[Ac]
+23.0 +16.0 65 +27 +28 душно 1019.0 944.3
ЮВ 8 10 км 8/8 900 м +22.0 +15.0 64 +25 +25 комфорт 1020.0 944.9
ЮВ 7 20 км 9/9 600 м
[Sc]
+21.6 +14.8 64 +25 +25 комфорт 1020.0 942.8
ЮВ 7 10 км 8/8 750 м +21.0 +15.0 69 +24 +24 комфорт 1020.0 944.7
ЮВ 7 10 км ясно +20.0 +15.0 73 +22 +22 комфорт 1020.0 944.5
ЮВ 4 20 км 3/0
[Ac trans Ci fib]
+19.0 +14.5 78 +20 +20 1021.0 943.7 +24.2
Ю 4 10 км ясно +19.0 +14.0 73 +20 +20 1021.0 945.1
ЮВ 5 10 км ясно +18.0 +14.0 77 +18 +18 1021.0 944.8
ЮВ 5 20 км ясно +17.9 +14.4 77 +18 +18 1021.0 943.5
ЮВ 6 10 км ясно +18.0 +14.0 77 +17 +17 1020.0 943.9
ЮВ 5 10 км ясно +17.0 +14.0 82 +16 +16 1019.0 942.7
ЮВ 6 20 км ясно +16.5 +14.5 88 +16 +16 1019.0 941.6
ЮВ 5 10 км ясно +16.0 +14.0 88 +15 +15 1019.0 942.5
ЮВ 5 10 км 2/2 600 м +16.0 +14.0 88 +15 +15 1019.0 942.5
ЮВ 3 20 км 3/0
[Ac trans Ci]
+15.1 +13.5 94 +14 +14 1019.0 942.1
ЮВ 4 10 км ясно +16.0 +14.0 88 +15 +15 1020.0 943.4
ЮВ 6 10 км ясно +18.0 +14.0 77 +17 +19 1020.0 943.9
ЮВ 8 20 км 1/0
[Ci fib]
+19.6 +13.2 64 +21 +23 комфорт 1021.0 943.5 +15.1
ЮВ 6 10 км ясно +22.0 +14.0 60 +25 +29 комфорт 1021.0 945.8
ЮВ 6 10 км ясно +23.0 +14.0 57 +26 +32 жарко 1021.0 946.1
ЮВ 5 20 км 3/1 1000 м
[Cu hum]
+24.2 +13.9 54 +26 +33 жарко 1020.0 942.8
ЮВ 4 10 км 2/2 1290 м +25.0 +14.0 50 +27 +35 жарко 1019.0 944.7
ЮВ 4 10 км 2/2 1380 м +26.0 +14.0 48 +28 +35 жарко 1018.0 944.0
ЮВ 5 20 км 6/4 1000 м
[Cu hum Ci fib]
+25.9 +14.2 48 +28 +30 жарко 1017.0 940.5
ЮВ 3 10 км ясно +26.0 +14.0 48 +28 +32 жарко 1017.0 943.1
ЮВ 6 10 км ясно +25.0 +15.0 54 +28 +28 жарко 1017.0 942.9
ЮВ 7 20 км 5/1 1500 м
[Cu med, cong Ci sp]
+23.2 +14.9 61 +27 +27 душно 1018.0 940.9
ЮВ 8 10 км ясно +21.0 +15.0 69 +24 +24 комфорт 1018.0 942.9
ЮВ 8 10 км ясно +20.0 +14.0 68 +21 +21 комфорт 1019.0 943.5
ЮВ 8 20 км ясно +19.2 +14.5 78 +20 +20 1019.0 941.6 +26.3
ЮВ 7 10 км ясно +19.0 +14.0 73 +20 +20 1019.0 943.2
ЮВ 7 10 км ясно +18.0 +15.0 83 +17 +17 1019.0 943.0
ЮВ 7 20 км ясно +18.2 +14.4 77 +17 +17 1019.0 941.7
ЮВ 7 10 км ясно +18.0 +14.0 77 +17 +17 1018.0 942.1
ЮВ 7 10 км ясно +17.0 +14.0 82 +16 +16 1018.0 941.8
ЮВ 6 20 км 9/4 1500 м
[Sc Ac trans Ci]
+17.2 +14.3 82 +16 +16 1018.0 941.1
ЮВ 6 10 км ясно +17.0 +14.0 82 +16 +16 1018.0 941.8
ЮВ 6 10 км ясно +17.0 +15.0 88 +16 +16 1018.0 941.8
ЮВ 6 20 км 6/3 1500 м
[Sc Ac trans Ci fib]
+17.1 +14.4 82 +16 +16 1018.0 941.4
В 6 10 км ясно +17.0 +14.0 82 +16 +16 1019.0 942.7
ЮВ 6 10 км ясно +18.0 +14.0 77 +17 +19 1019.0 943.0
В 5 20 км 6/3 1500 м
[Cu hum Ci sp]
+20.3 +14.7 73 +22 +26 комфорт 1020.0 942.9 +17.1
В 3 10 км ясно +22.0 +16.0 69 +26 +35 душно 1020.0 945.0
В 4 10 км ясно +24.0 +15.0 57 +27 +36 жарко 1020.0 945.4
СВ 3 20 км 4/1 1500 м
[Cu hum Ci fib]
+25.3 +15.5 57 +28 +41 жарко 1019.0 942.0
штиль 0 10 км 5/5 1200 м +27.0 +16.0 51 +30 +40 душно 1018.0 944.3
нст 1 10 км 8/8 1350 м +27.0 +16.0 51 +30 +33 душно 1017.0 943.4
СЗ 2 20 км 6/5 1000 м
[Cu med, cong Ci sp]
+27.8 +15.3 45 +31 +34 душно 1016.0 939.4
З 3 10 км 5/5 1350 м +28.0 +16.0 48 +31 +33 душно 1016.0 942.7
ЮВ 2 10 км 5/5 1350 м +27.0 +16.0 51 +30 +31 душно 1016.0 942.5
ЮВ 5 20 км 6/3 1000 м
[Cu med, cong]
+25.1 +16.7 61 +29 +29 душно 1016.0 939.3
ЮВ 6 10 км ясно +23.0 +16.0 65 +27 +27 душно 1016.0 941.5
ЮВ 6 10 км ясно +22.0 +16.0 69 +26 +26 душно 1017.0 942.2
ЮВ 7 20 км 4/0
[Ci sp]
+20.8 +16.7 78 +25 +25 комфорт 1017.0 940.3 +27.9
ЮВ 7 10 км ясно +20.0 +16.0 78 +22 +22 комфорт 1017.0 941.7
ЮВ 7 10 км ясно +20.0 +16.0 78 +22 +22 комфорт 1017.0 941.7
ЮВ 6 20 км 8/8 1000 м
[Sc]
+19.4 +15.5 83 +20 +20 1017.0 940.4
ЮВ 6 10 км ясно +19.0 +15.0 78 +20 +20 1017.0 941.4
В 4 10 км ясно +19.0 +15.0 78 +20 +20 1017.0 941.4
ЮВ 5 20 км 9/9 1500 м
[Sc]
+18.9 +14.8 78 +20 +20 1017.0 939.8
В 4 10 км ясно +19.0 +15.0 78 +20 +20 1016.0 940.5
ЮВ 4 10 км ясно +18.0 +15.0 83 +18 +18 1016.0 940.3
ЮВ 4 20 км 3/1 1500 м
[Sc Ac trans]
+17.6 +14.7 83 +18 +18 1016.0 939.6
ЮВ 4 10 км ясно +17.0 +15.0 88 +17 +17 1017.0 940.9
В 3 10 км 5/5 1470 м +18.0 +15.0 83 +18 +19 1018.0 942.1
В 3 8000 м мгла 4/3 1000 м
[Sc Ac trans]
+21.3 +14.6 69 +25 +29 комфорт 1018.0 941.3 +17.6
СВ 3 10 км 5/5 1470 м +24.0 +13.0 50 +26 +31 жарко 1018.0 943.5
СВ 4 10 км 8/8 1470 м +25.0 +13.0 47 +27 +29 жарко 1018.0 943.8
С 3 20 км 8/8 1000 м
[Cu hum]
+25.8 +12.5 45 +28 +30 жарко 1017.0 940.4
нст 2 10 км 5/5 1470 м +27.0 +13.0 42 +29 +36 жарко 1016.0 942.4
нст 2 10 км 5/5 1470 м +28.0 +13.0 40 +30 +36 жарко 1016.0 942.6
СВ 3 20 км 4/4 1000 м
[Cu hum]
+27.8 +13.6 42 +30 +33 жарко 1015.0 938.1
штиль 0 10 км 5/5 1440 м +28.0 +14.0 42 +30 +33 жарко 1014.0 940.8
СВ 2 10 км ясно +28.0 +14.0 42 +30 +31 жарко 1014.0 940.8
В 2 20 км 4/1 1500 м
[Cu med, cong Ci sp]
+25.9 +14.6 51 +29 +29 душно 1014.0 937.6
ЮВ 3 10 км ясно +23.0 +15.0 61 +27 +27 душно 1015.0 940.6
ЮВ 4 10 км ясно +22.0 +15.0 64 +25 +25 комфорт 1015.0 940.3
ЮВ 5 20 км 8/0
[Ac As Ci sp]
+21.7 +16.5 73 +26 +26 душно 1016.0 938.9 +28.0
ЮВ 5 10 км ясно +21.0 +17.0 78 +25 +25 комфорт 1016.0 941.1
ЮВ 4 10 км ясно +21.0 +16.0 73 +25 +25 комфорт 1016.0 941.0
В 3 20 км ясно +20.0 +16.3 78 +23 +23 комфорт 1016.0 938.9
ЮВ 3 10 км ясно +19.0 +16.0 83 +21 +21 комфорт 1016.0 940.5
ЮВ 3 10 км ясно +19.0 +16.0 83 +21 +21 комфорт 1015.0 939.6
ЮВ 3 20 км 4/0 +18.3 +16.1 88 +18 +18 1015.0 938.2
ЮВ 2 10 км ясно +18.0 +16.0 88 +19 +19 1015.0 939.4
ЮВ 3 10 км ясно +18.0 +16.0 88 +18 +18 1015.0 939.4
В 2 20 км 6/0 +18.2 +15.5 88 +19 +19 1016.0 939.0
В 3 10 км ясно +18.0 +16.0 88 +18 +18 1016.0 940.3
В 2 10 км слаб. дождь 8/5 1200 м
[Ac Ns]
+20.0 +16.0 78 +23 +24 комфорт 1017.0 941.7
В 3 13 км в посл. час дождь 9/4 1000 м
[Sc Ac und]
+21.2 +15.6 73 +25 +27 комфорт 1018.0 940.6 +18.2 0.0 0.0
СВ 4 10 км 8/2 900 м
[Ac]
+23.0 +14.0 57 +26 +30 жарко 1018.0 943.3
С 4 10 км 8/5 1200 м
[Ac]
+24.0 +14.0 54 +26 +30 жарко 1018.0 943.6
С 4 12 км мгла 9/3 1000 м
[Cu med, cong Ac trans Ci]
+24.2 +14.2 54 +26 +32 жарко 1017.0 940.0
С 3 10 км 8/5 1350 м
[Ac]
+25.0 +14.0 50 +27 +31 жарко 1016.0 941.9
СВ 3 10 км 8/5 1350 м
[Ac]
+25.0 +14.0 50 +27 +31 жарко 1015.0 941.0
С 3 12 км мгла 9/4 1000 м
[Cu hum Ac und Ci fib]
+25.3 +14.3 50 +27 +29 жарко 1015.0 937.9
С 2 10 км 8/2 1350 м
[Ac]
+26.0 +15.0 51 +29 +31 душно 1014.0 940.4
В 2 10 км 8/2 1350 м
[Ac]
+25.0 +15.0 54 +28 +28 жарко 1014.0 940.1
Ю 3 10 км осадки на расстоянии 10/1 1000 м
[Cu med, cong Ac trans Ci sp]
+24.5 +15.0 54 +28 +28 душно 1014.0 937.2
Ю 5 10 км ясно +21.0 +17.0 78 +25 +25 комфорт 1013.0 938.3
ЮВ 3 10 км ясно +21.0 +17.0 78 +25 +25 комфорт 1014.0 939.2
В 4 20 км 10/0
[Ac trans Ci sp]
+21.2 +16.0 73 +25 +25 комфорт 1014.0 937.3 +25.8
ЮВ 5 н/о гроза без осадков 2/2 1200 м
[Cb]
+21.0 +16.0 73 +24 +24 комфорт 1014.0 939.2
ЮВ 5 н/о ливневой дождь 2/2 1350 м
[Cb]
+21.0 +16.0 73 +24 +24 комфорт 1015.0 940.1
З 6 2500 м гроза, ливневой дождь 10/10 100 м
[Cb cap]
+18.4 +17.9 100 +17 +17 1017.0 939.8
Ю 5 10 км слаб. дождь 10/8 450 м
[Ac Ns]
+18.0 +17.0 94 +18 +18 1015.0 939.4
ЮВ 4 10 км слаб. дождь 10/2 1200 м
[Ac Ns]
+18.0 +17.0 94 +18 +18 1015.0 939.4
В 4 10 км слаб. дождь {гроза} 10/3 1000 м
[Sc diur, vesp As op]
+17.9 +16.9 94 +18 +18 1014.0 937.6 19
В 2 10 км 8/2 1200 м
[Ac]
+18.0 +17.0 94 +19 +19 1014.0 938.5
штиль 0 10 км 8/5 1350 м
[Ac]
+18.0 +17.0 94 +18 +18 1015.0 939.4
штиль 0 20 км {дождь} 9/5 1000 м
[Sc diur, vesp Ac As]
+17.9 +16.9 94 +18 +18 1015.0 938.3
В 1 10 км 5/5 90 м +18.0 +17.0 94 +19 +19 1016.0 940.3
штиль 0 8000 м 2/2 60 м +19.0 +18.0 94 +21 +23 комфорт 1016.0 940.6
штиль 0 8000 м дымка {дождь} 8/4 200 м
[St Ac trans]
+20.1 +17.9 88 +23 +27 комфорт 1016.0 939.6 +17.7 19 19.0
нст 5 10 км 8/8 360 м +23.0 +17.0 69 +28 +29 душно 1016.0 941.6
З 2 10 км 8/8 510 м
[Ac]
+22.0 +18.0 78 +27 +29 душно 1016.0 941.3
З 2 20 км 8/5 600 м
[Cu med, cong Ac trans]
+22.7 +17.5 73 +28 +36 душно 1016.0 938.8
З 3 10 км 5/5 750 м +23.0 +18.0 73 +28 +34 душно 1015.0 940.7
З 4 10 км 5/5 750 м +28.0 +18.0 55 +33 +37 очень
душно
1014.0 940.9
З 4 20 км 8/3 1000 м
[Cu med, cong Ac trans]
+24.3 +17.2 65 +28 +32 душно 1014.0 937.1
ЮЗ 4 10 км 8/2 900 м
[Ac]
+24.0 +16.0 61 +27 +28 жарко 1014.0 939.9
ЮЗ 4 10 км 8/2 900 м
[Ac]
+24.0 +17.0 65 +28 +28 душно 1014.0 939.9
ЮЗ 3 20 км 8/3 600 м
[Cu med, cong Ac trans]
+23.6 +17.0 65 +28 +28 душно 1014.0 937.1
Ю 4 10 км 8/2 1050 м
[Ac]
+22.0 +16.0 69 +26 +26 душно 1014.0 939.4
Ю 4 10 км 8/2 1050 м
[Ac]
+21.0 +16.0 73 +25 +25 комфорт 1015.0 940.1
Ю 4 20 км 1/1 1000 м
[Sc diur, vesp]
+19.9 +16.0 78 +23 +23 комфорт 1016.0 939.1 +28.0
Ю 3 10 км 8/8 690 м +19.0 +16.0 83 +21 +21 комфорт 1016.0 940.5
ЮВ 3 10 км 2/2 600 м +20.0 +16.0 78 +23 +23 комфорт 1016.0 940.8
Ю 3 20 км 1/1 600 м
[Sc]
+18.6 +15.9 83 +21 +21 комфорт 1016.0 939.1
Ю 2 10 км 2/2 600 м +17.0 +15.0 88 +17 +17 1016.0 940.0
Ю 2 10 км 8/8 690 м +18.0 +15.0 83 +19 +19 1016.0 940.3
Ю 1 20 км 6/6 600 м
[Sc]
+18.1 +15.6 88 +19 +19 1015.0 938.5
Ю 2 10 км 8/8 690 м +18.0 +16.0 88 +19 +19 1015.0 939.4
Ю 3 10 км 2/2 690 м +17.0 +15.0 88 +17 +17 1015.0 939.1
Ю 2 20 км 3/3 600 м
[Sc]
+16.7 +14.9 88 +17 +17 1016.0 939.1
ЮВ 2 10 км 5/5 600 м +17.0 +15.0 88 +17 +17 1017.0 940.9
ЮВ 2 10 км 2/2 600 м +19.0 +15.0 78 +21 +23 комфорт 1018.0 942.4
Ю 3 20 км 8/8 600 м
[Sc]
+19.8 +15.1 73 +23 +24 комфорт 1018.0 941.2 +16.7
ЮЗ 3 10 км 8/8 690 м +21.0 +15.0 69 +25 +26 комфорт 1018.0 942.9
ЮЗ 4 10 км 8/8 900 м +22.0 +15.0 64 +25 +27 комфорт 1018.0 943.1
Ю 4 20 км 9/9 600 м
[Cu med, cong]
+22.7 +14.9 61 +27 +29 душно 1017.0 940.5
Ю 5 10 км 8/8 900 м +24.0 +16.0 61 +27 +29 жарко 1017.0 942.7
Ю 5 10 км 5/5 900 м +24.0 +16.0 61 +27 +30 жарко 1016.0 941.8
Ю 4 20 км 5/5 1000 м
[Cu med, cong]
+24.7 +15.2 54 +28 +30 душно 1016.0 939.1
Ю 6 10 км 5/5 1200 м +25.0 +15.0 54 +28 +29 жарко 1016.0 942.0
Ю 7 10 км 5/5 1350 м +24.0 +15.0 57 +27 +27 жарко 1016.0 941.7
Ю 6 20 км 3/3 1000 м
[Cu med, cong]
+21.3 +15.2 69 +24 +24 комфорт 1017.0 939.8
Ю 4 10 км 2/2 1200 м +20.0 +15.0 73 +22 +22 комфорт 1017.0 941.7
Ю 3 10 км ясно +19.0 +15.0 78 +20 +20 1018.0 942.4
Ю 2 20 км 1/1 600 м
[Sc]
+18.4 +14.7 83 +19 +19 1018.0 941.1 +25.0
Ю 3 10 км 8/8 750 м +18.0 +15.0 83 +18 +18 1018.0 942.1
Ю 3 10 км 2/2 750 м +18.0 +15.0 83 +18 +18 1018.0 942.1
Ю 3 20 км 3/3 600 м
[Sc]
+17.7 +14.6 83 +18 +18 1018.0 941.2
ЮВ 3 10 км 2/2 690 м +17.0 +15.0 88 +17 +17 1018.0 941.8
ЮВ 2 10 км 8/8 750 м +16.0 +14.0 88 +16 +16 1017.0 940.6
Ю 2 10 км 8/8 750 м +17.0 +15.0 88 +17 +17 1017.0 940.9
штиль 0 10 км 2/2 750 м +16.0 +14.0 88 +16 +16 1017.0 940.6
Ю 2 10 км 8/8 600 м +17.0 +15.0 88 +17 +17 1017.0 940.9
ЮВ 2 20 км 4/4 600 м
[Sc]
+16.4 +14.4 88 +16 +16 1017.0 940.2
ЮВ 1 10 км 8/8 750 м +16.0 +15.0 94 +17 +17 1018.0 941.6
ЮЗ 1 10 км 8/8 780 м +18.0 +15.0 83 +19 +20 1019.0 943.0
Ю 1 10 км 8/8 330 м +19.0 +16.0 83 +21 +23 комфорт 1019.0 943.3
Ю 3 10 км 8/8 510 м +20.0 +16.0 78 +23 +25 комфорт 1020.0 944.5
Местоположение метеостанции Кампинас (Сан-Паулу, Бразилия): широта -23.01 долгота -47.13 высота над уровнем моря 661 м.
В архиве по умолчанию представлена погода в Кампинасе за последнюю неделю. Архивные данные за месяц целиком и за предыдущие месяцы, начиная с января 2011 года, Вы можете получить, выбрав интересующий диапазон дат из раскрывающегося списка и нажав кнопку "Найти!".
*Определитесь, кто Вы:
Внимание! Время в таблицах - всемирное. Для получения местного времени необходимо прибавить поправку, которая равна -3 ч.
Смотрите также архив погоды в соседних городах и на ближайших метеорологических станциях:
Партнеры нашего сайта:      
Пояснения к столбцам:
  • Ветер - указаны скорость ветра в м/с - средняя за 10 мин, порывы в срок и между сроками (в фигурных скобках) и направление, откуда дует ветер: С - северный,
  • СВ - северо-восточный, В - восточный, ЮВ - юго-восточный, Ю - южный, ЮЗ - юго-западный, З - западный, СЗ - северо-западный.
  • Видимость - горизонтальная дальность видимости в метрах или километрах. При видимости от 1 до 10 км при отсутствии осадков обычно наблюдается дымка, при ухудшении видимости до 1 км и менее - туман. В сухую погоду видимость может ухудшаться дымом, пылью или мглою.
  • Явления - указаны атмосферные явления, наблюдавшиеся в срок или в последний час перед сроком; фигурными скобками обозначены явления, наблюдавшиеся между сроками (за 1-3 часа до срока); квадратными скобками обозначены град или гололедные отложения с указанием их диаметра в мм.
  • Облачность - указаны через наклонную черту общая и нижняя облачность в баллах и высота нижней границы облаков в метрах; квадратными скобками обозначены формы облаков: Ci - перистые, Cs - перисто-слоистые, Cc - перисто-кучевые, Ac - высококучевые, As - высокослоистые, Sc - слоисто-кучевые, Ns - слоисто-дождевые, Cu - кучевые, Cb - кучево-дождевые. Подробнее классификацию облаков см. в Атласе облаков (PDF).
  • T - Температура воздуха - температура, измеренная на высоте 2 м над землей.
  • Td - Температура точки росы - температура, при понижении до которой содержащийся в воздухе водяной пар достигнет насыщения.
  • f - Относительная влажность воздуха - влажноcть воздуха, измеренная на высоте 2 м над землей.
  • Te - Эффективная температура - температура, которую ощущает одетый по сезону человек в тени. Характеристика душности погоды. При расчете учитывается влияние влажности воздуха и скорости ветра на теплоощущения человека.
  • Tes - Эффективная температура на солнце - температура, которую ощущает человек, с поправкой на солнечный нагрев. Характеристика знойности погоды. Зависит от высоты солнца над горизонтом, облачности и скорости ветра. Ночью, в пасмурную погоду, а также при ветре 12 м/с и более поправка равна нулю.
  • P - Атмосферное давление - приведенное к уровню моря атмосферное давление.
  • Po - Атмосферное давление - измеренное на уровне метеостанции атмосферное давление.
  • Tmin - Минимальная температура - минимум температуры воздуха на высоте 2 м над землей.
  • Tmax - Максимальная температура - максимум температуры воздуха на высоте 2 м над землей.
  • R - Количество осадков - Количество выпавших осадков за период времени, мм. При наведении курсора мыши на число - период времени, за который выпало указанное количество осадков.
  • R24 - Количество осадков - Количество выпавших осадков за 24 часа, мм.
  • S - Снежный покров - Высота снежного покрова, см. При наведении курсора мыши на число - состояние снежного покрова и степень покрытия местности в баллах.